View from above orbital plane
|
View from above satellite
|
Ground track
|
The orbit data is extracted from the following two-line orbital elements,
1 32785U 08021C 22175.81939885 .00001276 00000-0 13908-3 0 9994
2 32785 97.6573 146.4344 0011835 202.8409 157.2284 14.89615152767587
Epoch (UTC): | 24 June 2022 19:39:56 |
Eccentricity: | 0.0011835 |
inclination: | 97.6573° |
perigee height: | 591 km |
apogee height: | 607 km |
right ascension of ascending node: | 146.4344° |
argument of perigee: | 202.8409° |
revolutions per day: | 14.89615152 |
mean anomaly at epoch: | 157.2284° |
orbit number at epoch: | 76758 |
The dashed part of the orbit path shows where the satellite is in the earth's shadow,
|
|